Torna al catalogo

STARLINK-35303

AttivoComunicazioniVLEO
NORAD 65860·PAYLOAD·🇺🇸 United States

Lanciato Oct 3, 2025 da Vandenberg Space Force Base

Loading…

Prossimi Passaggi (prossime 24 ore)

TLE

AggiornatoSource: CelesTrak SupGP

Epoca: Sep 14, 2026, 21:23 UTC

1 65860C 25223G   26257.89145833 -.00039895  00000+0 -11788-2 0  2571
2 65860  53.1573 131.9069 0000958  82.0894 216.5290 15.34406911    13

Traccia STARLINK-35303 in tempo reale con AllMySat

Download on the App Store